RH
33 41 44 49 55 40 37 37 35 37 61 83 89 88 93 95 97 77 59 52 55 52 48 46 49 52 58 65 66 70 71 71 61 56 50 54 59 64 68 67 59 49 44
32 32 35 44 50 56 48 40 39 39 37 45 87 93 90 93 99 99 88 81 65 65 60 56 54 49 51 57 68 63 56 57 63 58 54 53 55 55 61 60 51 45 41
35 40 42 44 50 57 59 56 55 43 44 43 46 70 97 89 89 98 92 93 81 69 70 64 61 60 54 53 58 61 59 59 59 60 58 58 61 62 62 60 55 52 44
44 46 52 57 52 59 61 64 67 54 51 52 50 45 59 85 94 84 84 91 78 72 68 71 61 61 60 57 57 60 59 60 57 55 58 62 64 62 64 68 66 64 62
56 63 70 81 72 72 69 70 66 59 58 59 56 56 50 50 57 64 64 72 74 74 74 72 66 63 67 67 62 61 60 56 58 56 62 62 63 66 65 65 64 69 68
66 72 84 90 82 78 75 70 68 65 64 63 63 62 61 56 54 53 66 73 73 70 68 67 61 69 68 69 71 70 71 66 64 61 66 68 72 74 73 70 73 74 73
72 84 87 86 86 78 73 78 77 72 72 71 66 65 64 64 59 55 57 69 67 64 66 68 65 71 72 78 79 85 81 78 74 70 69 76 78 79 81 81 75 77 76
86 88 84 86 82 76 73 79 77 76 77 77 71 71 70 65 64 63 62 60 59 66 64 66 68 72 72 78 86 90 85 86 80 82 79 78 81 87 87 86 79 78 74
87 94 96 90 86 81 74 75 89 86 84 86 84 84 81 75 68 66 67 67 67 65 67 73 82 70 74 81 93 90 87 83 84 84 85 86 88 91 92 90 85 84 76
90 94 95 93 97 94 90 86 90 90 85 88 89 92 84 81 73 74 68 68 70 72 72 72 75 78 86 86 88 83 82 82 83 81 85 91 94 93 94 91 89 84 79
87 91 94 89 95 96 98 92 87 81 86 82 91 94 91 82 77 77 79 73 72 74 77 78 80 82 80 73 76 74 79 85 85 90 94 96 96 96 94 91 89 84 83
82 84 87 87 89 91 93 84 83 94 94 96 94 95 93 92 89 88 87 83 80 83 86 88 88 83 80 78 81 81 88 92 94 96 94 95 95 94 92 92 93 90 89
83 85 81 80 81 87 84 80 90 93 91 96 98 98 97 95 92 90 91 92 91 92 96 97 97 93 93 91 97 96 93 94 88 84 82 86 92 96 97 95 94 93 93
83 82 83 83 76 70 62 72 76 77 81 82 87 83 81 87 92 93 94 98 96 95 98 98 96 95 96 94 94 91 88 88 85 82 83 84 87 84 84 84 84 82 83
83 84 86 88 82 68 60 50 50 56 59 63 58 58 59 62 63 66 71 79 85 90 94 95 94 91 94 92 90 90 91 88 84 77 72 72 73 72 73 76 78 77 73
84 80 72 70 64 67 72 67 53 49 47 44 44 48 44 42 40 41 43 47 55 65 69 74 75 79 84 83 79 81 78 76 73 71 71 70 65 58 54 54 55 54 54
79 71 66 65 59 58 65 57 54 51 47 41 39 38 36 35 32 29 27 30 33 40 43 49 54 56 60 63 58 58 57 57 55 48 46 49 45 35 34 32 29 30 32
50 54 54 47 52 50 51 43 41 44 44 40 39 36 27 25 25 24 22 17 27 30 34 36 37 35 36 37 35 35 33 28 25 24 24 24 24 25 29 29 26 29 30
42 47 51 48 40 36 33 34 32 36 36 38 42 37 33 28 24 25 25 23 26 28 31 33 35 31 31 30 27 22 21 22 24 24 24 24 25 25 25 25 24 25 27
52 45 44 47 43 43 38 34 33 33 34 34 33 33 34 31 33 31 34 38 37 36 39 37 34 35 34 30 28 27 23 22 24 25 28 27 30 28 28 29 27 28 29
62 57 50 51 53 54 42 44 43 43 45 46 45 39 40 38 38 40 41 44 45 44 45 44 43 45 45 39 40 39 35 30 29 33 38 38 37 38 36 37 37 34 36
48 47 49 50 47 48 45 45 53 54 54 50 44 45 48 47 47 48 51 52 50 49 47 47 52 49 49 52 47 44 47 42 42 41 39 39 43 44 43 43 45 44 47
53 52 57 57 56 53 54 50 47 48 52 49 50 49 51 51 52 52 52 53 54 58 59 57 56 52 64 61 62 52 49 55 50 57 53 49 44 44 41 40 45 45 49
57 53 56 55 50 49 49 46 46 48 49 47 47 47 46 47 49 50 50 52 56 54 55 54 53 54 54 57 58 56 56 62 61 52 67 65 56 57 62 61 58 53 49
45 49 51 51 47 45 45 47 48 47 46 46 44 43 43 42 40 38 36 33 29 38 44 50 50 50 49 48 49 46 58 51 66 62 59 68 56 59 70 64 65 66 64
43 42 40 40 41 42 43 41 38 37 37 37 37 39 39 39 38 32 28 26 20 18 21 28 35 37 35 32 33 37 34 34 39 45 43 48 48 51 57 66 74 73 69